{"data":{"norad_id":54860,"intl_designator":"2022-177AS","name":"STARLINK-5406","alt_names":[],"object_type":"PAYLOAD","status":"ACTIVE","operator":null,"country":"US","launch_date":"2022-12-28","launch_site_code":"AFETR","launch_vehicle":null,"mission":null,"orbit_class":"UNKNOWN","rcs_meters":null,"size_class":null,"mass_kg":null,"dimensions":null,"purposes":["comms"],"wikipedia_slug":null,"has_3d_model":false,"image_url":null,"decayed_at":null,"tle_current":{"epoch":"2026-05-25T02:19:06.004128Z","epoch_age_seconds":66367,"freshness":"FRESH","line1":"1 54860U 22177AS  26145.09659727  .00000168  00000+0  15626-4 0  9993","line2":"2 54860  43.0019  50.2768 0000901 255.2933 104.7819 15.27575224188770","mean_motion":15.27575224,"eccentricity":9.01e-5,"inclination_deg":43.0019,"raan_deg":50.2768,"arg_perigee_deg":255.2933,"mean_anomaly_deg":104.7819,"bstar":1.5626e-5,"rev_number":18877,"period_min":94.267043440867,"perigee_km":482.44520298329,"apogee_km":483.68159129485,"semimajor_km":6861.2003971391,"source":"CELESTRAK","updated_at":"2026-05-25T13:38:17.727626Z"}}}